DROID.002

导读

DROID.002是美国图灵航天公司计划发射的第二颗空间态势感知技术验证卫星,原计划于2024年下半年发射,后调整发射时间为2025年3月15日。该卫星质量为首颗DROID.001卫星的3倍,拥有更高分辨率,其技术验证将为后续Droid Alpha星座卫星的设计提供支撑,助力空间碎片监测与在轨服务技术发展。

Basic Information
目录编号:
63223
目录名称:
DROID.002
国际标识:
2025-052P
轨道中心:
EARTH
卫星名称:
DROID.002
卫星全名:
DROID.002
卫星状态:
在轨 (已飞行539 天)
发射日期:
2025-03-15 UTC
国别 :
美国 (US)
星等 :
--
Orbit Information
数据来源 国际轨道数据
星历时间: 2026-09-05T11:41:05+0800
5小时前
查看轨道信息
半长轴: 6873.559km
偏心率: 0.0003178
轨道倾角: 97.381°
近地点辐角 186.325°
升交点赤经 139.736°
平近点角 173.795°
近地点: 493.237km
远地点: 497.607km
周期: 94.522分钟
每日圈数: 15.234573
Detailed Information
使用方式:
暂无
2D Orbit Map
3D Orbit Map
Orbit Altitude Analysis Chart
Orbit Inclination Analysis Chart
Orbit Comprehensive Analysis Chart
View Comprehensive Chart
Conjunction Data List
Event ID Objects TCA Miss Dist (km) Collision Risk Probability Collision Risk Index (CRI) Action
CDM_260906-164105-370106-322321
2026-09-06T
16:41:11+0000
1.148 km
极远距离
8.727666E-6 低风险 0.54
CDM_260905-204605-521206-322321
2026-09-05T
20:46:07+0000
1.488 km
极远距离
6.845866E-6 低风险 0.52
CDM_260905-161606-322306-677622
2026-09-05T
16:16:35+0000
2.310 km
极远距离
2.070559E-6 低风险 0.41
CDM_260830-023106-265406-322325
BRO-16 (62654)
2026-08-30T
02:31:57+0000
2.741 km
极远距离
1.525137E-6 低风险 0.39